SNEZKA Weather Reports


time (UTC)temp
F
wind
direction
speed
knots
gust
knots
rain 1hr
in
rain 24hr
in
rain mn
in
humidity
%
barometer
mb
20260905201958 41 270 46.9 55.6 0.00 0.00 0.00 99
20260905192220 41 240 39.1 51.3 0.00 0.00 0.00 99
20260905182306 43 250 40.8 51.3 0.00 0.00 0.00 86
20260905172026 45 250 33.0 42.6 0.00 0.00 0.00 75
20260905162402 45 250 26.9 40.8 0.00 0.00 0.00 81
20260905152156 45 240 22.6 52.1 0.00 0.00 0.00 81
20260905142255 45 230 20.9 39.1 0.00 0.00 0.00 81
20260905132158 45 240 17.4 31.3 0.00 0.00 0.00 81
20260905121700 45 230 31.3 45.2 0.00 0.00 0.00 81
20260905112011 43 230 17.4 39.1 0.00 0.00 0.00 93
20260905102440 43 250 26.9 37.4 0.00 0.00 0.00 86
20260905092208 41 240 31.3 42.6 0.00 0.00 0.00 99
20260905082004 41 250 45.2 53.9 0.00 0.00 0.00 93
20260905072306 41 260 33.0 45.2 0.00 0.00 0.00 99
20260905062010 39 250 42.6 0.0 0.00 0.00 0.00 99
20260905052002 41 250 40.8 52.1 0.00 0.00 0.00 99
20260905042411 43 260 46.9 66.0 0.00 0.00 0.00 99
20260905032011 41 270 60.0 75.6 0.00 0.00 0.00 99
20260905022003 46 270 55.6 66.0 0.00 0.00 0.00 70
20260905012306 43 280 53.9 66.0 0.00 0.00 0.00 86
20260905002028 46 270 52.1 61.7 0.00 0.00 0.00 99
20260904232048 46 260 33.0 42.6 0.00 0.00 0.00 99
20260904222417 48 240 28.7 42.6 0.00 0.00 0.00 99
20260904212031 50 270 28.7 39.1 0.00 0.00 0.00 99